Free Severe Weather Alerts by Email and Text Message   

 
Follow iAlert.com on twitter @ialertcom
Search For Active Alerts in Your Area  
  Hi Guest:  [ Sign-up / Services ] [ Login ]

Current weather by "City, St" or "zip code"  

 

Advertise Here

Hazardous Weather Conditions

Special Weather Statement issued January 23 at 4:24AM PST

Current Conditions: LOS ANGELES, CALIFORNIA

Fair


59.0 F

Last Updated on Jan 23 2018, 8:51 am PST
Humidity: 35%
Wind Speed: N 0.0 mph
Barometer 30.17 in
Dewpoint: 30.9 F
Visibility: 10.00 mi
Precip: --
Heat Index: NA
Wind Chill: NA
Current conditions at:

Santa Monica, Santa Monica Municipal Airport, CA (KSMO)

Lat: 34.01 Lon: -118.45

Local Radar Image active severe weather and emergency alerts image image weather storm and storm spotter reports image weather observation monitoring service image
Local
Radar
Active
Alerts
Storm Reports Weather
Monitoring

Weather Alert Notification Services


ialert severe weather and emergency alerts by text message and email ialert daily weather forecast by email and text message service ialert real-time weather-observation monitoring and alert notification service ialert storm report monitoring alert notification

Observation History for LOS ANGELES, CALIFORNIA


Time Wind
(mph)
Vis
(mi)
Weather Precip (in) Temperature (F) Relative
Humidity
Wind
Chill
(°F)
Heat
Index
(°F)
Pressure
Air Dwpt altimeter
(in)
sea level
(mb)
8:51 am PST N 0.0 10.00 Fair -- 59.0 30.9 35% NA NA 30.17 1021.4
7:51 am PST 3.5 10.00 Fair -- 51.0 30.9 46% NA NA 30.15 1020.8
6:51 am PST E 4.6 10.00 Fair -- 47.0 30.0 52% 45 NA 30.14 1020.5
5:51 am PST E 5.8 10.00 Fair -- 47.0 30.9 54% 44 NA 30.13 1020.3
4:51 am PST NE 4.6 10.00 Fair -- 49.0 28.0 44% 47 NA 30.13 1020.1
3:51 am PST N 3.5 10.00 Fair -- 50.0 28.9 44% NA NA 30.14 1020.4
2:51 am PST NE 4.6 10.00 Fair -- 49.0 33.1 55% 47 NA 30.15 1020.9
1:51 am PST N 3.5 10.00 Fair -- 50.0 30.0 46% NA NA 30.16 1021.1
12:51 am PST NE 4.6 10.00 Fair -- 50.0 35.1 57% 48 NA 30.16 1021.1
11:51 pm PST E 4.6 10.00 Fair -- 51.0 37.0 59% 50 NA 30.16 1021.4
10:51 pm PST E 4.6 10.00 Fair -- 52.0 37.0 57% 51 NA 30.16 1021.3
9:51 pm PST E 4.6 10.00 Fair -- 53.0 37.0 55% 52 NA 30.17 1021.4
8:51 pm PST N 0.0 10.00 Fair -- 55.0 39.0 55% NA NA 30.17 1021.4
7:51 pm PST NE 4.6 10.00 Fair -- 56.0 43.0 62% 55 NA 30.16 1021.3
6:51 pm PST N 0.0 10.00 Fair -- 57.0 46.9 69% NA NA 30.16 1021.1
5:51 pm PST W 8.1 10.00 Fair -- 59.0 46.0 62% 58 NA 30.15 1020.9
4:51 pm PST SW 8.1 10.00 Fair -- 62.0 37.9 41% 61 NA 30.16 1021.0
3:51 pm PST SW 9.2 10.00 Fair -- 62.0 41.0 46% 61 NA 30.16 1021.2
2:51 pm PST SW 8.1 10.00 Fair -- 63.0 36.0 37% 63 NA 30.16 1021.3
1:51 pm PST SW 9.2 10.00 Fair -- 63.0 37.9 40% 62 NA 30.18 1021.9
12:51 pm PST SW 6.9 10.00 Fair -- 65.0 28.9 26% NA NA 30.19 1022.3
11:51 am PST 5.8 10.00 Fair -- 64.0 27.0 25% NA NA 30.22 1023.4
10:51 am PST E 6.9 10.00 Fair -- 63.0 23.0 22% 63 NA 30.26 1024.6
9:51 am PST 3.5 10.00 Fair -- 61.0 25.0 25% NA NA 30.27 1024.9

Regional Weather Observation:


Los Angeles / USC Campus Downtown, CA (KCQT)

Fair
60.0 F

Burbank - Bob Hope Airport, CA (KBUR)

Fair
56.0 F

Los Angeles, Whiteman Airport, CA (KWHP)

Clear
50.0 F

El Monte, CA (KEMT)

Fair
54.0 F

Los Angeles, Los Angeles International Airport, CA (KLAX)

Fair
60.0 F

Hawthorne, Hawthorne Municipal Airport, CA (KHHR)

Fair
60.0 F

Advertise Here


Advertise Here